287  
SXUS52 KTAE 202119  
OSOTAE  
OSOTAE  
NORTH FLORIDA/SOUTH ALABAMA/SOUTHWEST GEORGIA WEATHER ROUNDUP  
NATIONAL WEATHER SERVICE TALLAHASSEE FLORIDA  
400 PM EST SUN JAN 20 2019  
 
NOTE: "FAIR" INDICATES FEW OR NO CLOUDS BELOW 12,000 FEET WITH NO  
SIGNIFICANT WEATHER AND/OR OBSTRUCTIONS TO VISIBILITY.  
 
!FLZ017-115-028-034-025-202200   
..NORTH FLORIDA
 
 
 
CITY SKY/WX TMP DP RH WIND PRES REMARKS  
TALLAHASSEE FAIR 45 32 60 NW15 30.06R WCI 38  
APALACHICOLA FAIR 48 31 51 NW15G21 30.07S WCI 42  
PERRY FAIR 49 32 52 NW13G22 30.03R WCI 43  
CROSS CITY FAIR 50 34 54 NW15 30.02R WCI 44  
JACKSONVILLE FAIR 50 32 50 W20G31 29.92R WCI 44  

 
 
!FLZ112-006-005-002-011-202200   
..FLORIDA PANHANDLE
 
 
 
CITY SKY/WX TMP DP RH WIND PRES REMARKS  
MARIANNA FAIR 44 30 57 NW15G23 30.09R WCI 37  
BONIFAY NOT AVBL  
PANAMA CITY NW FAIR 45 32 60 NW13 30.09S WCI 39  
TYNDALL AFB FAIR 46 32 58 NW10G18 30.10R WCI 41  
TYND DRONE APT NOT AVBL  
DE FUNIAK SPR FAIR 41 28 60 N15G23 30.12S WCI 33  
EGLIN AFB FAIR 46 29 53 N17 30.12R WCI 38  
DESTIN FAIR 45 31 58 N16 30.13R WCI 38  
HURLBURT SUNNY 45 30 55 N14G23 30.12R WCI 38  
CRESTVIEW FAIR 44 28 53 N12 30.15R WCI 38  
PENSACOLA FAIR 45 30 55 NW16G26 30.16R WCI 38  

 
 
!ALZ063-066-202200   
..SOUTH ALABAMA
 
 
 
CITY SKY/WX TMP DP RH WIND PRES REMARKS  
DOTHAN FAIR 44 28 53 NW20 30.12R WCI 36  
OZARK CAIRNS FAIR 43 28 55 NW12G22 30.10S WCI 37  
FT RUCKER HELI FAIR 43 29 57 NW13G20 30.10S WCI 37  
RUCKER HELI 3 FAIR 41 28 60 N15 30.11R WCI 33  
RUCKER HELI 2 FAIR 43 29 57 NW9G18 30.09S WCI 38  
FLORALA APT FAIR 43 27 53 NW8 30.16R WCI 38  
ANDALUSIA FAIR 46 27 47 NW13G22 30.13S WCI 40  
TROY PTSUNNY 40 27 59 NW14G22 30.14R WCI 32  
EUFALA FAIR 45 29 53 NW12G20 30.07R WCI 39  
MOBILE FAIR 46 29 51 N14G23 30.17F WCI 40  

 
 
!GAZ120>161-202200   
..SOUTHWEST AND SOUTH CENTRAL GEORGIA
 
 
 
CITY SKY/WX TMP DP RH WIND PRES REMARKS  
THOMASVILLE FAIR 45 32 61 NW10G22 30.04R WCI 39  
BAINBRIDGE N/A 46 30 53 MISG 30.07S  
MOODY AFB FAIR 46 32 59 NW16G22 29.98R WCI 39  
VALDOSTA FAIR 45 32 60 NW17G23 30.00S WCI 38  
MOULTRIE FAIR 45 32 61 NW10G17 30.03R WCI 39  
BLAKELY FAIR 43 30 61 NW9G16 30.09R WCI 37  
ALBANY FAIR 48 29 47 NW13 30.05R WCI 43  
TIFTON FAIR 46 30 55 NW15G22 29.98 WCI 39  
FITZGERALD FAIR 47 32 54 NW16G24 29.99S WCI 41  
CORDELE FAIR 46 28 48 NW15 30.02R WCI 40  
AMERICUS FAIR 48 27 43 NW16G22 30.05R WCI 42  
HOMERVILLE NOT AVBL  

 
 
!GMZ750-755-770-775-202200   
..COASTAL AND BUOY OBS
 
 
 
STATION/POSITION TIME TEMP WIND PRES VSBY WAVE  
AIR SEA DIR/SP/G HT/PER  
(UTC) (F) (DEG/KT/KT) (MB) (MI) (FT/S)  
KEATON BEACH 2100 47 300/ 12/ 17 1017.0R  
CEDAR KEY 2100 47 320/ 12/ 17 1016.7R  
C TOWER 2100 47 330/ 16/ 20 1017.9F  
APALACHICOLA BUO NOT AVBL  
PANAMA CITY BUOY NOT AVBL  
MOBILE BUOY 2100 330/ 16/ 21 1023.1  
ORANGE BCH AL BU 2100 45 320/ 17/ 23 1022.3  

 
 
 
CLICK HERE TO GO TO PREVIOUS BULLETINS.

The Nexlab FL Page
The Nexlab GA Page
The Nexlab AL Page Main Text Page